Location: Recife
(8.0585°S, 34.8848°W)
Time: 19:59:03
(UTC-03:00)

Explorer 11/Cluster Stage 4 - Pass Details

Date: 23 April 2026
Orbit: 463 x 1174 km, 28.8° (Epoch: 19 May)

Event Time Altitude Azimuth Distance (km) Brightness Sun altitude
Rises 18:09:24 0° 270° (W) 3,921 11.9 -14.3°
Reaches altitude 10° 18:12:54 10° 257° (WSW) 2,874 10.5 -15.1°
Maximum altitude 18:18:27 25° 205° (SSW) 1,845 8.6 -16.5°
Enters shadow 18:23:01 11° 154° (SSE) 2,407 8.7 -17.6°
